Weather History for KGEG - September, 2013

Change the Weather History Date:

Tuesday, September 24, 2013

  Actual Average Record
Temperature  
Mean Temperature 53 °F 57 °F  
Max Temperature 60 °F 70 °F 90 °F (2011)
Min Temperature 46 °F 44 °F 22 °F (1926)
Degree Days  
Heating Degree Days 12 9  
Month to date heating degree days 70 126  
Since 1 July heating degree days 77 191  
Cooling Degree Days 0 1  
Month to date cooling degree days 108 37  
Year to date cooling degree days 709 448  
Growing Degree Days 4 (Base 50)    
Moisture  
Dew Point 42 °F    
Average Humidity 63    
Maximum Humidity 86    
Minimum Humidity 40    
Precipitation  
Precipitation 0.09 in 0.02 in 0.33 in (1977)
Month to date precipitation 0.64 0.53  
Year to date precipitation 8.11 10.64  
Snow  
Snow 0.00 in 0.00 in 0.00 in (2002)
Month to date snowfall 0.0 0.0  
Since 1 July snowfall 0.0 0.0  
Since 1 September snowfall 0.0 0.0  
Snow Depth 0.00 in    
Sea Level Pressure  
Sea Level Pressure 29.83 in    
Wind  
Wind Speed 8 mph (SSW)    
Max Wind Speed 16 mph    
Max Gust Speed 21 mph    
Visibility 9 miles    
Events Rain    
T = Trace of Precipitation, MM = Missing Value Source: NWS Daily Summary

Daily Weather History Graph

Daily Weather History Graph

Search for Another Location

Airport or City:

Trip Planner

Search our weather history database for the weather conditions in past years. The results will help you decide how hot, cold, wet, or windy it might be!

Date:

Astronomy

Sep. 24, 2013 Rise Set
Actual Time 6:40 AM PDT 6:43 PM PDT
Civil Twilight 6:09 AM PDT 7:13 PM PDT
Nautical Twilight 5:33 AM PDT 7:49 PM PDT
Astronomical Twilight 4:56 AM PDT 8:26 PM PDT
Moon 9:42 PM PDT (9/24) 12:20 PM PDT (9/24)
Length of Visible Light 13h 04m
Length of Day
12h 03m
Waning Gibbous, 72% of the Moon is Illuminated
Sep 24
Waning Gibbous
Sep 26
Last Quarter
Oct 4
New
Oct 11
First Quarter
Oct 18
Full

Hourly Weather History & Observations

Time (PDT) Temp. Dew Point Humidity Pressure Visibility Wind Dir Wind Speed Gust Speed Precip Events Conditions
12:53 AM 50.0 °F 42.1 °F 74% 29.91 in 10.0 mi South 6.9 mph - N/A   Scattered Clouds
1:53 AM 50.0 °F 43.0 °F 77% 29.91 in 10.0 mi South 6.9 mph - N/A   Overcast
2:53 AM 48.9 °F 43.0 °F 80% 29.90 in 10.0 mi SSE 4.6 mph - N/A   Overcast
3:53 AM 48.9 °F 43.0 °F 80% 29.89 in 10.0 mi South 8.1 mph - N/A   Overcast
4:53 AM 48.9 °F 44.1 °F 83% 29.88 in 10.0 mi SSE 4.6 mph - 0.00 in   Overcast
5:53 AM 48.0 °F 45.0 °F 89% 29.88 in 10.0 mi South 8.1 mph - 0.01 in   Overcast
6:53 AM 48.0 °F 46.0 °F 93% 29.87 in 10.0 mi SSE 4.6 mph - 0.03 in Rain Light Rain
7:44 AM 48.2 °F 46.4 °F 93% 29.86 in 8.0 mi South 4.6 mph - 0.00 in Rain Light Rain
7:53 AM 48.0 °F 46.0 °F 93% 29.86 in 10.0 mi South 4.6 mph - 0.00 in   Overcast
8:04 AM 48.2 °F 46.4 °F 93% 29.86 in 9.0 mi South 6.9 mph - 0.00 in Rain Light Rain
8:13 AM 48.2 °F 46.4 °F 93% 29.85 in 9.0 mi South 5.8 mph - 0.00 in Rain Light Rain
8:35 AM 48.2 °F 46.4 °F 93% 29.85 in 1.5 mi South 6.9 mph - 0.01 in   Light Drizzle
8:53 AM 50.0 °F 48.0 °F 93% 29.85 in 1.5 mi SSW 5.8 mph - 0.01 in Rain Light Rain
9:02 AM 50.0 °F 48.2 °F 94% 29.85 in 3.0 mi SSW 8.1 mph - 0.00 in Rain Light Rain
9:25 AM 50.0 °F 46.4 °F 87% 29.85 in 2.0 mi SW 9.2 mph - 0.00 in Rain Light Rain
9:53 AM 50.0 °F 46.9 °F 89% 29.85 in 3.0 mi SW 11.5 mph - 0.02 in   Overcast
10:16 AM 50.0 °F 48.2 °F 94% 29.84 in 7.0 mi SW 9.2 mph - 0.02 in   Mostly Cloudy
10:53 AM 52.0 °F 46.9 °F 83% 29.84 in 10.0 mi SW 13.8 mph - 0.02 in   Overcast
11:53 AM 54.0 °F 46.0 °F 75% 29.82 in 10.0 mi SSW 11.5 mph - N/A   Mostly Cloudy
12:53 PM 55.0 °F 44.1 °F 67% 29.80 in 10.0 mi SSW 10.4 mph - N/A   Overcast
1:53 PM 57.0 °F 41.0 °F 55% 29.78 in 10.0 mi SW 12.7 mph - N/A   Mostly Cloudy
2:53 PM 57.9 °F 37.0 °F 46% 29.77 in 10.0 mi SW 11.5 mph - N/A   Mostly Cloudy
3:53 PM 59.0 °F 36.0 °F 42% 29.76 in 10.0 mi WSW 11.5 mph - N/A   Mostly Cloudy
4:53 PM 57.9 °F 34.0 °F 41% 29.76 in 10.0 mi WSW 11.5 mph - N/A   Mostly Cloudy
5:53 PM 57.0 °F 33.1 °F 40% 29.77 in 10.0 mi SW 12.7 mph - N/A   Mostly Cloudy
6:53 PM 54.0 °F 34.0 °F 47% 29.78 in 10.0 mi SW 10.4 mph - N/A   Scattered Clouds
7:53 PM 52.0 °F 35.1 °F 53% 29.80 in 10.0 mi SW 9.2 mph - N/A   Mostly Cloudy
8:53 PM 51.1 °F 35.1 °F 54% 29.81 in 10.0 mi NNW 4.6 mph - N/A   Mostly Cloudy
9:53 PM 50.0 °F 37.9 °F 63% 29.81 in 10.0 mi SW 6.9 mph - N/A   Scattered Clouds
10:53 PM 48.0 °F 42.1 °F 80% 29.80 in 10.0 mi SSW 4.6 mph - N/A   Mostly Cloudy
11:53 PM 46.9 °F 42.1 °F 83% 29.79 in 10.0 mi Calm Calm - N/A   Overcast